ARIANE 6 R/B, 60239

Orbit data source: Space-Track

ARIANE 6 R/B, 60239 is space debris in LEO originally from a launch on Tue, 09 Jul 2024 UTC via an ARIANE 62 launch vehicle from the French Guiana (FRGUI). Debris objects in space refer to the collection of defunct objects orbiting the Earth. Examples of debris include non-operational satellites, rocket bodies, and fragments generated from explosions, collisions, or faulty payload assembly.

Loading next visibility...
Identifier
60239, 2024-128E
Orbit
LEO
Last TLE update
13 hours ago
Origin
Manufacturer
ArianeGroup
Mission
Spacecraft
Bus & Motor
ARI6DP, Unknown motor
Mass
~7,711 kg wet, 1,600 kg dry
Launch date (UTC)
2024-07-09 (1 year ago)
Launch vehicle
ARIANE 62
Launch site
French Guiana (FRGUI)
Object type
Payload
Rocket body
Debris
Shape & HBR
Cyl + Trunc Cone, 14.1 m
Radar Cross Section
72.787 m², Large (>1 m²)

Expand to show TLE details & history

TLE from 13 hours ago
0 ARIANE 6 R/B
1 60239U 24128E   25181.85536693  .00000911  00000-0  89482-4 0  9995
2 60239  62.0130  10.1969 0054574  63.5900 297.0776 14.99052990 53338
Epoch: 2025-06-30T20:31Z
TLE epoch observation values (Epoch: 2025-06-30T20:31:43.702Z)
Latitude
-0.00003°
Longitude
143.10561°
Altitude
554.494 km
Speed
7.594 km/s
True Right ascension
00h 40m 47s
True Declination
0° 00' 00"
Sunlit
Object was in daylight at epoch
Visualization orbit readout
Latitude
-34.72443°
Longitude
119.79523°
Altitude
590.483 km
Speed
7.559 km/s
Apparent Right ascension
03h 01m 38s
Apparent Declination
-67° 41' 32"
Sunlit
Object is in full shadow
Visualization observer readout
Local Sidereal Time
20:47:44
Azimuth
151.396° SSE
Elevation
-37.683°
Doppler factor
1
Orbital elements
Apogee altitude
606.662 km
Perigee altitude
530.838 km
Semi-major axis
6,946.887 km
Eccentricity
0.00546
Inclination
62.013°
RAAN
10.1969°
Arg. of periapsis
63.59°
True anomaly
Unknown
Mean anomaly
297.0776°
Eccentric anomaly
Unknown
Mean motion
3.7485 °/min
Orbital period
96.04 mins
BSTAR
0.000089482
Loading maneuver chart data...
Loading SW <> Apogee altitude chart data...
Loading historical data...
Loading historical data...
Loading historical data...
Loading historical data...
Loading historical data...
Loading historical data...
Loading historical data...

ARIANE 6 R/B Visibility forecast

Observer location: undefined°, undefined°

Span
Click to sort rows by Start time (UTC) header in descending order
Start Az.
Max El. time (UTC)
Max El. Az.
Max El.
End time (UTC)
End Az.
7 mins2025-07-01 14:16:30.133Z201.458° SSW2025-07-01 14:20:30.133Z95.982° ESE39.866°2025-07-01 14:23:30.133Z44.727° NE
6 mins2025-07-01 22:40:30.133Z334.625° NNW2025-07-01 22:43:30.133Z64.216° ENE41.153°2025-07-01 22:46:30.133Z130.463° SE
|